Location: Unspecified
(0.0000°N, 0.0000°E)
Time: 23:02:23
(UTC+00:00)

LQSAT - Visible Passes

Search period start: 06 June 2023 00:00
Search period end: 16 June 2023 00:00
Orbit: 637 x 660 km, 97.7° (Epoch: 06 June)

Date Brightness Start Highest point End Pass type
(mag) Time Alt. Az. Time Alt. Az. Time Alt. Az.
06 Jun ? 19:00:37 19° E 19:01:05 19° ENE 19:04:14 10° NNE visible
06 Jun ? 20:38:23 18° W 20:38:23 18° W 20:40:41 10° WNW visible
07 Jun ? 19:26:58 43° E 19:27:06 43° ENE 19:31:22 10° N visible
08 Jun ? 19:53:18 77° WNW 19:53:18 77° WNW 19:57:37 10° NNW visible
09 Jun ? 18:41:53 10° E 18:42:45 11° ENE 18:43:39 10° ENE visible
09 Jun ? 20:19:38 32° W 20:19:38 32° W 20:23:12 10° NW visible
10 Jun ? 19:08:13 24° E 19:08:45 24° ENE 19:12:24 10° NNE visible
10 Jun ? 20:45:58 14° W 20:45:58 14° W 20:47:41 10° WNW visible
11 Jun ? 19:34:33 56° E 19:34:46 57° ENE 19:39:11 10° N visible
12 Jun ? 20:00:53 60° W 20:00:53 60° W 20:05:15 10° NNW visible
13 Jun ? 18:49:27 13° E 18:50:24 14° ENE 18:52:44 10° NE visible
13 Jun ? 20:27:13 25° W 20:27:13 25° W 20:30:33 10° NW visible
14 Jun ? 19:15:46 30° E 19:16:24 32° ENE 19:20:24 10° NNE visible
14 Jun ? 20:53:32 11° W 20:53:32 11° W 20:54:11 10° W visible
15 Jun ? 19:42:07 71° ESE 19:42:25 75° E 19:46:56 10° N visible
